This is the latest recevied weather packets stored in our database for station/object PE2ETE-15. If no packets are shown the sender has not sent any weather packets the latest 1 day(s).
| Time | Temp. | Humidity | Pressure | Rain* | Wind** | Luminosity | Snow |
|---|---|---|---|---|---|---|---|
| 1777718008 | 18.89° C | 55% | 1019.3 hPa | - | - | - | - |
| 1777717112 | 17.78° C | 56% | 1019.4 hPa | - | - | - | - |
| 1777717108 | 17.78° C | 56% | 1019.4 hPa | - | - | - | - |
| 1777716212 | 17.22° C | 56% | 1019.2 hPa | - | - | - | - |
| 1777716208 | 17.22° C | 56% | 1019.2 hPa | - | - | - | - |
| 1777715312 | 17.22° C | 56% | 1019.3 hPa | - | - | - | - |
| 1777715308 | 17.22° C | 56% | 1019.3 hPa | - | - | - | - |
| 1777714412 | 17.22° C | 55% | 1019.3 hPa | - | - | - | - |
| 1777714408 | 17.22° C | 55% | 1019.3 hPa | - | - | - | - |
| 1777713513 | 16.67° C | 56% | 1019.3 hPa | - | - | - | - |
| 1777713508 | 16.67° C | 56% | 1019.3 hPa | - | - | - | - |
| 1777712612 | 16.67° C | 56% | 1019.4 hPa | - | - | - | - |
| 1777712607 | 16.67° C | 56% | 1019.4 hPa | - | - | - | - |
| 1777711712 | 17.22° C | 55% | 1019.4 hPa | - | - | - | - |
| 1777711707 | 17.22° C | 55% | 1019.4 hPa | - | - | - | - |
| 1777710807 | 16.67° C | 54% | 1019.2 hPa | - | - | - | - |
| 1777709912 | 16.67° C | 54% | 1019.2 hPa | - | - | - | - |
| 1777709906 | 16.67° C | 54% | 1019.2 hPa | - | - | - | - |
| 1777709012 | 16.11° C | 54% | 1019.1 hPa | - | - | - | - |
| 1777709006 | 16.11° C | 54% | 1019.1 hPa | - | - | - | - |
| 1777708113 | 15.56° C | 54% | 1019.3 hPa | - | - | - | - |
| 1777708106 | 15.56° C | 54% | 1019.3 hPa | - | - | - | - |
| 1777707215 | 15° C | 54% | 1019.2 hPa | - | - | - | - |
| 1777707206 | 15° C | 54% | 1019.2 hPa | - | - | - | - |
| 1777706312 | 13.89° C | 55% | 1019.2 hPa | - | - | - | - |
* Rain since midnight (hover to see other rain measurements)
** Current wind speed in m/s (hover to see current wind gust speed)